sat.trackr.live / text

‹ back to catalog

QIANFAN-135

NORAD 69081 · 2026-104J

PAYLOAD ACTIVE UNKNOWN

§ Identity

Operator
Country
PRC
Launch date
2026-05-12
Launch site
TAISC
Launch vehicle
Mass (kg)
RCS (m²)

External: N2YO · Heavens-Above · Gunter

§ Orbital elements

Epoch: 2026-09-20T04:22:43.711104Z

Period
106.59 min
Inclination
88.9902°
Eccentricity
0.0002460
Mean motion
13.51022345 rev/d
Perigee alt
1,066.7 km
Apogee alt
1,070.3 km
Semi-major
7,446.6 km
B*
8.3161e-5
RAAN
331.7949°
Arg perigee
111.9359°
Mean anomaly
248.2054°
Rev number
1,797

§ Raw data

QIANFAN-1351 69081U 26104J   26263.18245036  .00000066  00000+0  83161-4 0  99992 69081  88.9902 331.7949 0002460 111.9359 248.2054 13.51022345 17974

JSON: /api/v1/satellites/69081 · /tle

For live sub-satellite position, see the globe view (requires WebGL).

§ Visibility from observer

Set your observer location to see the next 7 days of passes ≥ 10°. The values pass through the URL so the page stays shareable.

No JS? Fill the form by hand. The geolocation button needs JavaScript.